Theta_e
334 330 334 333 331 331 334 335 336 335 334 333 332 331 327 325 320 319 320 321 321 325 328 325 327 328 327 327 328 326 325 323 325 327 327 326 327 317 315 316 317 317 317 319 317 315 314 315 315 318 320 320 322 321 318 316 315 314 316 319 320 318 315 313 311 315 318 319 319 318 317 314 311 310
336 334 335 331 331 334 337 337 336 334 334 333 331 331 330 330 324 322 318 319 325 327 327 327 324 326 326 326 327 326 326 322 323 324 328 326 326 315 314 314 312 312 314 315 312 311 312 315 317 320 319 320 318 316 315 314 313 314 317 319 320 319 317 314 314 315 316 316 316 317 316 313 312 311
334 333 330 332 332 337 336 334 334 334 333 332 331 333 332 331 329 327 324 319 325 327 324 325 327 326 327 325 326 325 323 320 319 321 328 328 320 315 317 313 312 312 312 311 311 313 313 314 315 318 318 319 317 315 316 314 314 316 319 318 317 318 318 317 315 317 317 317 317 317 317 316 314 313
334 332 331 331 334 334 333 333 333 332 332 335 335 332 332 333 330 330 326 321 321 328 327 327 326 327 327 325 324 322 321 318 317 322 323 327 317 321 323 312 312 312 311 311 313 317 313 312 314 317 318 318 318 317 317 315 315 316 314 313 314 314 316 316 315 317 318 318 317 317 318 317 317 315
333 331 331 333 334 335 333 333 333 331 332 333 333 334 332 329 328 327 326 321 322 327 331 332 325 326 326 322 322 318 320 316 316 318 326 325 325 321 321 321 312 311 310 310 310 311 309 310 316 315 315 317 316 316 313 312 311 310 310 310 312 312 314 315 314 315 316 317 316 317 316 317 317 317
331 333 333 332 332 333 333 332 330 332 334 334 334 333 332 333 330 330 328 324 323 321 326 325 328 324 326 321 323 319 321 317 314 318 326 326 325 319 320 318 321 309 311 310 309 310 308 307 310 310 308 310 310 311 310 308 308 308 307 304 308 311 312 314 311 310 312 314 314 313 313 314 314 315
332 334 334 333 331 333 334 332 331 335 331 331 329 328 331 330 331 331 331 327 324 322 325 328 327 324 323 323 320 320 322 319 313 314 320 322 320 317 317 320 318 309 310 308 308 308 308 307 307 308 307 307 307 307 307 306 306 305 305 303 304 306 308 308 309 309 311 312 312 312 311 312 312 312
331 331 332 331 332 333 332 330 333 334 333 332 330 331 333 330 332 333 331 327 327 324 323 324 324 325 322 322 322 320 321 319 313 313 316 319 317 315 314 317 320 314 309 308 308 308 308 307 307 306 306 306 306 305 305 305 304 304 303 303 303 303 304 304 303 304 306 307 308 309 309 311 312 313
331 331 330 333 330 332 330 331 331 332 331 331 332 331 331 330 331 331 329 327 329 325 324 324 326 331 324 322 321 319 319 319 315 313 313 316 316 314 314 314 319 312 309 309 308 307 307 307 306 306 306 305 305 305 304 304 304 303 303 302 302 302 302 303 304 305 305 305 305 307 308 308 309 311
333 333 332 331 331 329 331 329 331 332 331 331 330 329 328 330 330 329 329 329 327 328 325 323 321 326 324 318 319 320 320 319 316 313 313 314 315 314 314 314 316 317 317 318 316 310 308 306 306 306 306 305 304 304 304 303 303 303 303 302 302 301 301 301 302 302 301 302 303 304 306 306 308 309
332 332 332 331 331 330 330 330 330 331 332 331 331 330 331 332 333 328 325 326 325 326 324 322 320 320 321 321 315 319 320 320 318 315 313 313 313 314 314 313 314 319 317 314 309 312 313 312 313 307 305 304 305 304 304 304 303 302 302 300 299 298 298 299 299 301 302 303 303 302 301 301 302 305
333 333 333 333 333 332 334 331 333 334 333 332 331 332 329 327 326 327 328 325 326 324 324 324 318 318 319 317 317 318 318 317 316 315 313 311 312 313 315 316 314 318 318 318 317 311 311 310 311 307 306 306 305 305 304 304 304 303 301 299 299 300 299 298 299 300 301 302 301 300 299 300 302 302
331 332 333 333 333 334 333 324 323 323 324 332 329 327 330 330 328 329 326 325 325 326 323 323 321 317 317 316 316 315 315 313 313 315 315 313 313 313 314 315 316 315 315 317 316 314 315 312 313 313 313 313 309 308 305 308 305 303 301 300 300 300 300 300 301 301 301 302 302 301 300 300 301 300
332 333 335 335 332 325 323 318 311 308 308 314 329 331 330 327 328 328 328 325 323 323 321 320 321 316 314 314 318 317 316 316 318 316 315 313 313 313 313 315 316 316 316 314 313 314 315 313 311 311 311 313 317 315 312 311 310 306 301 301 301 300 299 300 300 301 301 300 300 300 300 299 299 299
332 334 333 335 332 329 324 322 304 302 300 302 307 312 316 323 330 328 326 325 324 321 321 323 321 318 317 317 318 317 316 318 317 317 317 315 314 312 310 308 314 317 317 315 314 314 318 315 312 312 313 314 319 316 318 305 303 301 301 301 301 301 300 300 300 299 299 299 299 298 298 298 299 299
331 331 332 332 334 334 334 334 326 311 301 299 299 298 300 305 310 315 327 326 324 324 322 320 320 320 319 320 322 318 321 318 317 317 318 317 314 314 311 311 311 316 320 316 314 314 320 317 316 317 316 320 319 314 305 302 302 301 301 301 301 301 301 301 301 300 299 299 299 298 298 299 298 297
330 331 331 331 332 332 326 330 332 329 316 300 297 298 298 297 302 306 307 307 327 329 325 322 321 322 323 320 319 322 322 324 319 318 314 317 316 315 312 312 313 320 323 319 314 313 316 318 317 318 322 321 315 310 304 303 303 303 303 302 301 301 300 301 300 300 299 299 299 299 299 299 299 299
330 332 331 331 331 333 331 331 332 332 328 322 320 321 325 324 309 301 302 303 298 312 328 328 326 327 325 321 324 329 329 327 321 319 316 320 319 318 315 318 323 323 322 318 317 313 315 319 319 317 320 325 324 317 306 302 303 303 302 302 301 300 300 300 299 299 298 298 298 298 298 298 297 297
330 331 331 331 331 332 331 332 328 331 329 327 326 326 328 325 324 325 325 326 328 327 328 329 328 326 327 329 331 330 329 329 327 327 325 322 322 322 328 324 324 323 322 324 319 312 315 319 318 321 323 321 317 313 303 302 302 302 302 301 301 300 300 299 298 298 298 297 298 297 296 296 296 296
328 328 330 331 333 329 330 319 311 319 328 328 326 326 327 323 317 310 298 292 294 316 330 329 326 322 311 301 309 309 324 328 329 325 325 324 322 318 320 315 320 320 322 324 321 316 315 323 323 318 318 318 315 315 313 301 303 302 301 301 300 300 299 298 297 297 297 298 297 297 296 296 295 296
328 323 324 325 330 329 329 312 306 307 311 328 326 325 322 318 317 311 307 296 293 292 292 293 293 292 293 294 295 295 295 316 323 323 320 320 320 318 315 313 316 316 317 318 321 320 316 320 319 316 315 314 315 315 313 310 302 301 301 301 300 300 300 299 298 298 298 297 297 297 297 296 296 298
327 312 303 309 318 325 326 301 305 305 316 325 325 324 321 318 315 311 310 308 303 294 294 294 293 294 294 296 296 295 297 303 316 322 319 321 319 315 314 311 314 314 313 311 316 315 314 317 316 312 312 314 314 312 314 313 308 300 300 300 300 300 301 300 298 298 298 298 298 297 297 297 299 306
326 317 306 298 298 312 315 297 301 301 314 327 325 323 321 317 314 312 312 310 310 310 310 310 311 309 307 313 312 307 299 301 309 317 315 317 319 317 314 314 314 310 309 309 310 311 310 312 310 310 306 303 308 312 313 312 310 308 309 306 305 300 300 299 298 298 299 298 298 298 297 296 299 305
314 311 309 301 292 291 291 293 294 297 297 317 324 323 320 317 312 313 313 312 313 313 313 313 313 312 312 311 311 312 311 310 311 312 312 313 313 312 314 317 315 312 309 305 304 308 307 308 304 307 304 301 298 309 311 312 311 311 313 312 310 302 299 299 298 297 298 298 298 298 297 296 299 304
304 303 302 302 293 290 291 292 292 293 293 295 322 323 321 318 313 309 313 312 306 314 312 311 310 310 309 309 309 308 307 307 308 308 308 310 311 311 310 307 307 304 303 303 298 308 306 306 305 307 308 306 306 306 309 309 309 309 310 309 308 309 309 309 307 307 297 296 296 295 296 297 298 301
300 298 297 296 292 290 291 291 293 294 296 298 314 311 298 297 300 314 313 313 313 311 311 310 308 309 308 307 306 305 305 305 305 306 307 306 307 307 310 310 308 304 302 305 300 310 309 307 307 306 306 306 306 303 304 305 308 310 309 309 308 308 308 308 307 307 309 306 303 300 299 296 297 296
296 296 295 294 291 290 290 290 291 292 294 297 298 294 296 297 298 304 313 312 312 311 311 310 308 306 306 305 304 304 303 303 305 306 306 306 305 305 306 308 308 305 304 306 310 310 310 307 306 305 303 304 301 301 302 300 303 308 306 307 307 308 308 307 305 306 305 305 307 295 295 295 294 294
294 294 293 292 290 291 291 291 291 290 291 292 291 291 293 296 299 313 312 313 313 308 307 306 306 306 305 305 304 303 305 305 306 306 306 305 305 307 306 306 306 308 306 305 305 306 308 306 305 306 305 303 302 301 301 304 304 304 303 306 305 306 305 305 305 305 304 305 305 307 304 302 303 302
293 291 290 290 291 291 291 292 292 292 291 290 291 292 293 298 307 309 309 308 308 305 302 302 302 301 301 303 303 305 305 305 306 305 305 306 305 305 305 305 306 306 307 306 306 306 306 306 305 305 306 305 303 304 302 301 302 302 303 301 301 302 303 306 304 303 303 303 304 303 303 302 301 301
291 291 291 291 292 292 293 295 294 293 294 291 292 292 295 299 298 299 301 301 300 298 298 298 297 298 299 300 302 303 304 303 302 302 302 303 303 303 302 302 302 303 304 304 304 304 305 305 305 305 305 305 303 303 303 301 301 303 301 301 301 301 303 303 302 303 302 301 302 302 302 302 301 300
296 294 294 293 291 292 291 291 292 292 293 294 295 296 297 297 297 297 296 297 297 296 296 296 296 297 298 300 300 299 299 299 300 303 303 303 303 303 302 300 300 300 302 302 302 304 304 304 304 304 302 303 304 303 302 301 300 301 301 302 300 298 300 302 302 301 302 301 302 301 302 301 301 299
296 296 292 293 294 293 293 294 293 293 293 292 292 295 295 295 295 295 294 294 296 297 297 297 297 296 297 296 296 297 297 297 298 300 299 299 300 301 302 299 298 299 300 301 302 302 300 304 305 304 303 302 300 300 301 301 300 300 299 300 299 301 301 299 300 300 301 301 300 299 300 300 299 299
294 293 292 291 291 291 288 289 290 291 291 290 291 291 293 293 293 293 293 292 292 293 294 293 294 294 295 295 295 295 295 295 296 299 300 301 300 301 302 299 299 299 299 300 301 302 303 302 302 303 302 302 301 301 299 297 299 300 299 299 299 299 300 300 299 299 300 299 298 298 298 300 300 299
291 290 289 289 289 289 288 287 287 287 288 288 288 288 288 290 290 291 290 291 291 290 291 292 291 292 292 293 294 295 294 295 296 296 295 299 300 297 298 297 298 298 299 298 299 299 300 302 302 302 301 301 303 300 300 298 297 298 299 298 298 297 298 300 300 300 300 298 298 296 297 297 299 299
289 288 288 287 287 287 288 287 286 286 287 287 287 287 288 288 287 287 289 290 289 289 289 289 290 290 291 291 292 292 292 293 295 296 296 297 298 297 296 296 297 297 298 297 297 298 300 299 300 299 299 300 298 298 297 299 297 297 298 298 298 297 297 299 298 299 299 298 298 295 295 296 297 299
289 289 288 287 286 287 286 286 286 287 287 287 287 287 287 287 287 287 287 290 291 290 290 289 289 290 291 291 291 292 291 291 293 294 293 294 294 294 296 296 296 297 297 297 297 299 299 299 297 296 295 296 294 291 292 295 296 297 295 293 297 297 297 298 298 299 298 297 297 296 290 290 295 297
290 290 290 289 289 288 287 287 287 287 287 287 287 288 287 287 287 289 290 289 291 289 290 289 290 290 291 291 290 290 291 292 290 291 293 294 294 294 292 293 294 297 297 297 298 298 299 296 297 296 294 292 292 291 292 292 293 296 298 294 293 296 296 296 297 296 297 297 297 296 294 292 294 297
292 292 291 290 290 289 289 289 289 288 288 288 288 288 289 290 291 292 293 293 291 290 290 291 290 291 291 291 291 291 292 292 293 293 293 293 293 293 294 294 294 296 297 297 298 297 298 297 296 295 294 290 291 291 291 293 294 294 295 297 292 292 296 294 293 293 294 297 297 297 297 294 294 297
294 293 293 292 292 292 291 290 290 290 291 290 289 289 290 291 292 292 291 291 293 292 291 291 291 291 290 290 291 291 291 291 291 292 291 293 293 293 293 293 293 294 295 293 296 296 297 296 295 296 295 293 290 291 292 291 291 294 293 293 296 294 292 292 293 294 295 293 296 298 297 297 294 288
294 293 293 293 293 293 293 293 292 292 292 292 292 292 292 290 291 292 291 290 290 290 290 290 291 291 291 292 292 292 293 291 292 292 291 292 292 292 292 291 293 293 291 292 292 296 296 294 295 296 296 295 294 295 295 294 295 296 295 293 291 294 293 293 292 293 293 296 297 293 293 294 293 296
295 294 294 294 293 293 293 293 293 293 293 293 292 291 292 292 292 291 290 291 290 291 291 291 290 291 292 291 291 291 291 291 291 291 291 291 290 291 290 290 292 292 292 291 292 293 295 297 296 289 296 296 294 297 294 292 290 292 293 294 291 287 289 292 297 295 292 294 295 293 291 291 291 293
295 294 294 295 294 294 294 293 293 293 293 293 292 292 292 290 290 289 290 289 290 289 291 291 291 291 291 292 292 291 291 291 291 291 291 291 291 290 291 291 292 292 292 292 292 292 296 299 296 298 299 294 294 292 290 290 290 291 292 294 293 291 289 288 289 290 296 293 292 292 292 292 293 291
294 294 294 294 295 294 294 294 294 293 293 293 291 291 290 291 290 290 291 290 290 290 290 291 291 291 291 292 291 291 291 290 290 290 290 290 291 291 290 291 291 292 292 292 293 294 293 295 298 294 294 294 293 293 291 291 291 292 292 293 293 294 294 291 290 288 288 286 288 290 294 292 291 289
294 295 294 294 294 294 294 294 294 294 294 293 292 292 292 291 291 291 291 291 291 291 291 291 291 291 291 291 291 291 291 291 290 290 290 289 290 291 291 291 291 291 292 292 293 293 294 294 294 294 293 292 293 292 291 291 291 292 292 292 293 293 293 293 292 290 289 289 287 286 283 286 289 289
294 294 294 294 294 294 294 294 294 294 293 293 292 291 291 291 291 291 290 291 291 291 291 291 291 292 291 291 291 290 291 291 291 291 291 291 291 291 291 291 291 291 291 292 292 292 292 293 293 294 293 292 293 292 292 292 292 291 292 291 291 292 293 293 292 292 292 293 289 285 287 286 288 287
Wind_Speed
11 9 12 8 6 7 8 10 9 8 7 6 6 6 6 6 6 7 7 6 7 9 9 7 13 15 11 9 9 9 10 12 13 10 9 10 10 11 13 12 12 11 11 10 9 9 8 8 9 9 10 9 9 8 9 9 8 6 5 3 3 3 3 2 1 1 2 4 5 1 3 4 4 4
7 8 7 6 7 9 8 8 8 7 6 6 6 7 7 8 9 7 7 7 6 4 6 7 9 10 10 10 9 9 9 17 14 11 10 11 10 15 13 13 12 11 11 10 9 9 9 9 9 9 9 10 10 9 8 8 7 7 7 6 5 5 4 5 5 5 4 4 4 4 5 6 6 7
9 8 8 7 9 8 8 8 6 5 5 7 8 7 9 8 8 6 5 4 5 4 7 11 9 10 11 10 9 9 10 14 14 10 9 11 16 18 12 14 13 12 11 10 9 9 9 10 9 10 9 9 9 8 8 8 7 8 7 7 7 6 6 6 7 7 8 9 9 9 8 8 9 9
9 9 10 11 9 8 8 7 6 7 8 9 9 11 10 5 4 5 4 5 4 7 7 4 6 12 11 12 10 10 10 12 15 10 9 12 18 12 9 13 14 12 12 11 10 10 10 10 10 10 9 9 9 8 8 8 8 8 8 8 8 8 8 8 8 9 10 10 11 11 11 11 11 12
8 10 11 11 11 10 9 7 6 8 10 10 10 9 8 9 10 7 7 7 5 3 2 3 8 11 12 11 11 11 11 11 10 11 10 13 11 11 9 10 13 14 13 12 11 11 11 10 10 10 9 9 9 9 9 9 9 9 9 9 9 9 9 10 10 9 10 11 11 11 11 12 12 13
9 9 10 10 9 10 10 7 10 11 10 10 10 9 8 6 7 11 8 7 5 8 3 8 7 10 11 10 12 11 11 11 11 11 11 10 10 9 10 10 10 15 14 13 13 12 11 11 10 10 10 9 9 8 9 9 9 10 10 10 10 10 10 10 10 10 9 10 11 11 11 12 12 13
10 9 9 9 8 8 9 8 10 10 12 11 11 12 9 8 9 9 8 5 6 7 7 5 5 9 11 10 12 12 11 11 12 12 11 10 9 9 10 10 9 17 15 16 14 13 12 11 11 10 10 10 9 9 10 10 10 11 11 11 11 11 10 10 10 10 10 11 11 11 11 11 12 12
10 11 8 8 10 9 9 11 10 10 10 9 8 8 9 10 9 9 7 6 4 5 6 7 7 9 11 11 12 11 12 11 12 11 10 10 10 10 10 10 11 15 19 17 15 14 13 12 12 11 11 11 11 11 11 11 11 11 11 11 10 10 10 10 11 11 11 10 11 11 11 12 13 14
9 8 10 9 7 9 11 9 10 11 11 9 9 9 8 8 6 5 6 7 4 5 5 6 4 2 4 10 8 11 12 11 11 12 11 10 10 10 9 9 9 19 21 19 17 15 14 13 13 12 12 12 12 12 12 12 12 12 11 10 10 10 10 11 11 10 10 10 11 11 11 12 14 15
6 7 8 9 10 8 10 8 9 9 12 11 11 12 10 7 7 8 6 6 7 7 8 9 9 10 10 11 10 12 11 11 10 11 11 10 10 10 9 9 7 8 8 7 8 10 11 13 13 13 13 14 15 14 13 13 13 12 11 11 11 11 11 10 9 10 11 11 11 11 11 12 13 15
10 10 9 11 10 11 10 10 10 9 9 9 9 7 5 3 4 8 8 6 8 7 9 8 10 10 11 8 9 11 12 11 10 10 9 9 10 9 9 9 8 9 10 11 14 13 13 14 13 14 17 17 16 15 14 15 14 13 13 13 12 10 9 10 10 10 10 10 11 11 11 11 10 12
9 9 9 10 10 10 9 10 10 8 7 5 6 2 5 4 5 6 9 11 11 12 9 5 7 9 8 9 8 9 10 10 10 10 10 10 9 10 9 9 9 10 10 10 9 10 12 12 15 16 17 18 16 16 15 16 14 14 13 11 9 9 10 10 9 9 10 10 10 10 10 10 10 10
8 9 10 11 10 10 8 7 5 6 3 5 7 6 8 5 5 8 8 5 3 4 6 6 8 8 6 7 9 9 10 11 10 9 9 9 9 9 9 10 10 10 11 10 10 11 12 12 11 10 10 11 16 15 18 13 15 14 10 10 10 9 8 8 8 8 8 8 8 8 8 9 9 9
11 11 9 9 4 8 8 8 7 6 10 8 5 6 10 10 8 8 8 7 8 8 7 7 9 10 10 10 9 9 9 8 8 9 9 9 10 9 10 9 10 11 10 10 10 10 12 11 11 11 11 10 12 9 10 9 8 11 13 9 7 6 5 6 5 5 5 5 6 6 6 7 7 8
10 9 9 7 8 8 7 7 10 12 13 13 13 11 7 7 10 10 9 8 9 9 8 6 6 8 9 7 9 9 8 8 9 8 8 8 8 9 10 10 9 10 9 9 9 9 10 11 10 11 10 12 9 6 6 14 13 11 9 7 6 5 5 4 3 3 2 2 3 4 5 6 6 7
9 9 9 7 7 8 9 8 8 9 12 12 12 10 10 8 5 4 8 10 9 8 8 9 10 9 8 1 3 6 3 6 8 8 8 9 8 8 9 8 9 9 9 8 8 8 7 11 9 8 8 7 11 10 13 16 14 13 11 10 8 6 5 4 3 3 4 5 6 7 8 8 8 8
9 9 8 8 7 7 9 9 10 9 9 10 10 10 8 7 6 7 4 2 0 7 9 8 9 9 5 6 6 5 6 5 7 8 9 7 8 8 8 8 7 8 9 7 8 8 8 7 4 4 3 10 9 10 13 15 14 13 12 10 8 7 5 4 3 4 4 6 6 6 7 7 8 8
8 9 8 7 8 7 9 10 10 9 10 8 8 8 7 6 4 2 2 1 1 2 1 6 5 2 4 6 4 3 1 3 7 9 9 7 8 8 8 4 6 7 7 8 7 7 8 7 6 6 5 9 8 8 12 16 15 13 12 9 8 5 5 3 2 3 3 3 5 5 6 8 8 9
10 5 6 6 7 6 8 8 9 9 10 9 9 10 10 9 8 5 4 5 3 3 1 2 4 5 4 4 1 2 3 3 4 4 5 7 7 6 8 9 7 6 5 4 5 8 6 5 6 4 7 8 9 6 9 15 14 12 10 10 7 6 5 4 3 2 2 1 2 4 5 7 8 9
7 6 7 5 4 5 7 6 8 2 7 10 10 10 8 7 8 6 4 5 5 4 2 4 5 3 4 4 4 6 2 3 4 4 3 6 8 9 7 7 7 6 3 2 4 4 4 3 5 3 4 7 8 8 6 8 13 13 12 10 10 9 7 7 7 6 4 1 2 4 5 6 8 11
2 5 2 2 4 4 6 7 9 5 6 8 9 10 10 6 6 5 4 9 12 12 14 14 13 11 9 10 11 11 11 7 3 4 3 4 5 7 8 9 7 5 5 5 4 3 5 4 3 3 2 3 4 5 7 6 9 14 14 13 12 10 9 9 8 7 5 3 2 3 3 5 9 12
5 6 11 10 6 3 2 9 12 7 4 8 8 9 8 8 7 6 6 5 6 13 16 15 14 12 11 12 12 12 11 9 3 4 3 2 6 8 9 10 9 6 5 5 7 1 3 5 3 4 2 0 2 4 8 7 7 9 9 12 12 11 10 10 9 9 7 5 2 2 6 8 9 7
2 5 9 15 13 7 5 8 10 7 2 6 7 8 9 9 8 8 8 8 9 8 9 8 9 8 8 7 8 8 12 12 9 6 4 2 3 6 8 7 9 7 4 4 8 1 4 4 5 3 3 1 1 4 9 8 7 8 7 6 6 10 9 11 11 10 8 6 3 5 4 7 6 7
7 8 8 12 17 14 11 10 10 7 6 3 6 8 8 8 9 9 9 9 9 9 8 8 8 8 7 7 7 7 7 8 9 8 6 6 5 3 5 4 6 5 4 1 5 3 4 3 5 3 3 2 1 3 2 2 4 2 2 1 2 9 10 10 8 11 10 6 6 4 3 3 6 6
8 8 9 7 14 14 13 12 11 11 9 7 5 9 8 7 11 11 10 9 9 9 10 10 9 8 7 7 7 7 7 7 7 7 8 8 7 5 6 4 7 8 6 2 4 3 3 2 3 3 1 1 1 1 2 2 2 2 4 0 3 1 3 3 2 7 7 9 7 6 5 4 9 8
7 7 6 6 10 15 15 15 14 15 14 14 7 10 17 17 13 10 10 9 9 9 8 8 8 7 7 7 7 7 7 7 6 6 7 8 9 8 6 5 6 6 3 2 3 4 2 3 4 2 2 2 2 2 3 3 1 2 2 1 2 3 4 2 3 2 6 7 7 5 6 10 11 10
8 7 7 7 12 17 17 19 19 17 17 14 9 13 16 15 13 11 8 9 8 8 8 8 8 7 7 7 6 7 6 6 5 5 7 8 9 10 10 10 9 9 6 3 1 2 1 4 3 3 3 2 1 1 3 5 5 5 3 2 2 2 2 3 2 3 3 5 5 10 8 9 9 10
8 7 7 8 14 15 15 18 18 19 18 13 17 16 13 4 6 7 9 8 7 7 8 8 8 7 7 7 7 7 6 6 6 6 7 8 8 9 8 9 8 5 6 5 4 4 4 4 5 3 1 1 1 3 2 2 1 2 2 2 3 1 2 4 2 4 6 7 5 1 4 2 3 4
9 10 12 16 17 16 14 16 16 16 17 20 20 20 18 13 5 5 6 7 7 7 7 7 8 8 8 8 8 7 7 8 7 8 8 9 9 9 9 9 7 5 5 5 5 5 4 4 4 3 2 1 2 0 1 2 2 2 2 2 2 3 4 3 6 6 8 6 6 6 6 7 8 7
14 13 13 16 18 18 14 12 11 10 12 17 19 19 17 10 9 9 9 8 9 9 8 8 8 7 6 7 7 7 7 6 7 6 6 6 7 6 7 7 7 7 6 6 6 5 5 5 4 3 1 2 1 1 1 1 2 2 1 0 4 4 2 7 6 7 6 6 5 5 6 5 5 5
9 11 11 11 14 14 17 15 14 14 13 13 13 12 10 10 10 10 10 9 9 9 8 8 7 7 7 6 7 7 6 6 5 3 3 3 5 5 6 7 7 6 6 5 5 5 4 4 3 2 2 2 1 3 3 2 4 3 2 4 4 4 5 5 5 6 5 6 5 4 4 4 5 6
7 6 8 11 10 12 12 11 10 11 11 10 10 9 8 9 10 12 15 14 9 8 7 7 7 6 6 6 7 6 6 6 5 6 6 5 4 4 5 6 6 5 5 5 5 5 4 4 2 2 4 5 4 4 2 3 4 2 2 3 2 2 5 4 4 4 5 5 5 5 4 4 5 4
8 9 11 11 11 11 10 9 9 9 9 10 10 10 10 9 9 9 10 10 9 8 8 8 7 6 6 6 6 6 6 6 6 6 6 4 3 2 2 5 6 6 6 5 5 4 4 5 5 6 5 3 4 4 4 4 3 3 3 4 4 3 3 4 3 3 3 4 4 4 3 4 5 4
8 9 8 8 8 9 9 9 8 8 8 9 9 9 10 10 10 10 10 10 9 8 8 8 8 8 6 7 6 6 6 6 5 6 5 4 5 4 4 4 5 5 4 5 4 4 3 4 5 4 4 5 6 7 6 5 5 5 4 3 3 3 3 3 3 3 3 3 4 4 3 2 3 3
7 7 7 7 7 7 7 7 8 7 7 6 6 7 8 8 9 8 8 7 6 7 6 7 6 5 7 6 6 6 5 5 5 5 6 5 4 3 4 4 3 3 4 3 3 2 2 3 4 7 4 5 6 6 9 8 4 4 3 2 2 3 3 4 4 4 4 3 3 3 3 2 3 2
6 6 6 6 7 7 7 7 6 7 7 7 7 5 6 7 7 7 7 6 6 5 5 5 4 3 4 4 3 4 4 4 5 5 3 4 3 4 3 3 3 3 3 3 2 2 1 2 2 1 5 6 5 4 2 7 7 4 2 1 3 3 3 4 5 3 2 2 3 1 1 2 3 3
5 4 6 6 6 6 6 6 6 6 7 7 7 6 6 5 5 6 6 5 6 4 4 3 3 3 3 3 3 3 3 3 3 2 1 2 2 3 2 2 2 3 3 2 2 2 2 3 3 3 3 2 2 6 4 3 6 8 5 2 1 1 2 3 4 2 2 2 1 1 1 0 1 3
4 5 5 5 5 5 5 5 5 5 6 5 5 5 5 5 5 5 4 5 4 3 3 3 3 3 3 3 3 3 3 3 2 1 1 1 1 1 1 1 0 1 3 4 3 3 2 2 2 3 3 2 2 5 4 3 2 5 6 4 1 2 2 2 2 1 1 1 1 1 1 1 2 4
6 5 4 5 5 5 5 5 4 5 5 5 5 5 4 4 4 3 3 3 3 3 4 3 3 3 2 2 1 2 2 2 3 3 2 1 2 2 2 2 2 2 3 1 1 4 2 3 3 3 3 1 3 4 2 2 3 3 2 4 3 1 1 1 2 2 1 1 1 2 3 5 5 6
6 5 5 5 5 5 5 5 5 5 5 5 5 4 4 3 3 3 3 3 3 3 3 3 2 3 3 3 3 3 3 3 3 3 3 2 2 2 2 2 2 2 2 1 1 3 6 7 5 4 3 4 2 2 2 1 1 2 3 2 3 3 2 1 0 1 1 4 4 1 4 3 2 3
6 6 5 5 4 4 4 5 5 5 5 6 6 5 5 5 5 3 2 3 3 3 3 3 3 3 2 2 2 3 3 3 3 3 3 3 3 2 1 5 1 1 2 3 4 3 4 5 4 2 3 1 1 1 1 1 3 3 4 3 1 4 3 2 3 3 3 5 5 2 1 1 0 3
5 5 5 4 4 4 4 5 5 5 5 5 4 3 5 3 3 2 3 3 3 3 3 3 2 2 2 3 3 3 3 3 3 2 2 3 3 1 0 1 2 0 1 3 2 2 4 4 5 3 2 1 2 2 1 1 2 2 2 4 3 4 6 5 2 3 4 4 4 4 2 1 1 1
5 5 4 4 4 4 4 4 5 5 5 5 4 4 4 3 2 2 2 2 2 2 2 2 2 2 2 3 3 3 3 3 3 3 2 2 2 2 2 1 1 1 3 3 3 3 2 2 2 2 3 2 0 0 1 2 1 1 1 2 3 4 3 4 2 2 4 4 3 2 2 2 3 2
5 4 4 3 4 4 4 4 4 4 5 4 3 2 2 2 3 2 2 2 2 2 3 3 3 2 2 3 3 3 2 3 2 2 2 2 2 2 2 2 1 3 1 3 3 2 3 2 2 0 1 2 1 1 2 0 0 1 1 2 1 1 3 3 1 1 2 4 3 1 2 3 3 2
5 4 4 3 3 4 4 4 4 4 4 2 2 2 2 2 2 3 3 3 3 2 2 2 1 2 2 2 2 3 2 1 1 1 1 1 2 1 0 3 2 2 2 1 2 3 2 2 2 1 1 2 1 1 1 2 2 1 1 1 0 0 0 2 4 3 3 2 3 4 3 2 2 3
Wind_Direction
192 205 203 199 215 224 213 223 219 214 207 207 200 201 196 179 211 202 193 200 222 221 204 194 191 210 179 168 173 183 153 146 160 174 167 157 166 162 164 162 161 163 160 156 154 150 147 146 146 147 151 147 147 149 153 153 150 157 163 164 169 156 156 161 235 289 295 307 338 344 175 176 198 222
211 194 175 197 218 217 219 220 226 219 195 192 206 218 204 188 209 196 183 197 200 203 199 209 204 182 168 177 180 180 163 151 176 180 171 159 163 159 166 165 163 165 164 159 157 155 154 155 158 155 159 159 157 160 164 166 168 174 186 194 200 191 191 198 207 220 236 248 247 226 216 215 215 224
206 192 196 206 221 211 216 219 210 209 209 203 208 212 218 196 202 187 166 205 199 206 213 218 180 169 170 180 173 185 154 164 177 190 176 171 143 159 165 167 167 169 170 162 160 160 160 162 168 166 166 170 168 169 181 185 187 194 196 200 204 211 209 208 216 224 233 240 244 243 232 228 236 241
197 195 203 209 207 209 213 208 207 214 219 223 211 208 211 153 206 176 183 189 207 198 222 230 199 171 175 183 172 188 148 167 184 183 196 129 143 161 166 171 170 173 173 169 167 169 166 167 175 177 178 181 178 184 195 198 202 201 204 206 213 218 223 225 224 229 237 242 246 249 250 246 243 244
195 206 211 203 201 202 207 204 205 211 215 218 231 227 208 185 175 171 196 197 196 313 340 307 216 177 175 184 178 185 156 161 185 205 133 141 156 166 167 173 175 177 177 176 177 175 173 175 178 183 189 188 187 192 201 205 208 211 212 216 220 225 229 232 232 234 239 245 248 252 252 251 251 247
206 210 209 205 197 208 204 196 221 212 217 218 214 213 218 201 167 181 177 194 167 192 140 253 256 170 189 189 173 185 156 167 179 192 155 172 180 178 169 168 176 181 181 181 183 182 180 181 184 186 193 197 196 200 206 210 214 215 218 223 228 232 234 237 240 242 245 248 251 252 252 253 255 256
214 205 210 194 196 208 199 199 223 217 218 218 220 217 208 213 180 167 173 161 190 190 194 211 241 193 186 203 175 186 163 172 181 192 179 177 185 186 181 171 170 178 183 185 183 188 185 186 190 191 197 201 201 206 211 213 218 219 222 224 229 235 242 248 250 250 250 249 252 256 260 262 262 262
218 210 203 205 201 196 198 205 208 212 214 218 221 216 220 212 180 171 146 185 197 180 193 203 204 214 173 211 183 181 170 172 185 193 189 185 183 186 188 189 169 173 181 182 184 188 190 192 195 197 200 204 207 212 215 219 221 224 225 229 232 237 243 248 251 254 258 263 269 270 271 271 270 272
218 215 213 200 203 199 207 202 213 213 211 220 221 215 218 204 167 125 149 189 204 197 191 239 254 95 177 213 198 176 174 176 184 191 191 189 189 188 186 205 154 161 179 179 184 187 191 196 199 202 205 209 213 216 219 222 226 228 229 231 234 239 243 246 252 260 264 265 264 265 267 268 272 275
213 226 210 209 202 190 206 206 212 212 214 219 221 223 212 205 176 143 136 183 189 214 204 182 226 162 214 192 206 179 193 175 185 187 189 188 192 184 189 192 157 147 159 180 188 187 193 200 201 206 212 215 216 219 219 223 227 228 229 230 232 235 240 248 255 258 260 263 267 270 270 272 274 277
207 212 217 213 199 199 203 209 212 210 219 221 229 225 217 138 122 153 168 189 191 201 219 207 207 195 198 182 196 198 184 181 189 184 187 191 189 187 184 193 168 154 170 180 176 181 194 194 201 208 215 217 219 218 219 224 225 225 226 229 232 238 245 249 252 259 265 267 269 271 273 275 276 277
219 208 213 223 213 217 199 204 203 200 212 215 208 281 107 169 171 148 163 179 203 189 203 201 200 226 158 180 191 207 180 187 190 191 189 194 190 185 185 191 192 166 165 181 183 186 190 196 201 208 213 220 219 217 221 224 224 223 226 228 233 237 243 250 257 260 263 266 268 269 270 271 271 270
218 229 222 222 218 207 193 160 103 116 127 215 190 145 128 149 183 182 166 192 172 215 188 204 226 193 205 182 187 201 181 196 194 185 191 191 197 191 186 194 199 195 182 185 182 186 190 199 204 206 215 217 214 221 217 220 216 223 218 221 226 234 241 249 251 254 255 262 267 268 271 272 272 274
214 216 215 214 177 101 131 133 138 136 97 79 120 158 175 172 186 176 168 174 184 197 200 200 227 180 190 200 186 204 186 190 197 190 190 196 193 202 196 198 200 203 202 197 199 192 183 193 200 204 212 218 190 206 191 214 210 190 203 208 217 219 225 226 232 242 251 256 262 267 273 277 279 278
215 217 214 209 140 141 121 132 128 108 106 110 126 146 159 175 169 171 173 182 182 194 205 169 214 194 206 193 190 197 193 181 202 201 192 201 203 201 204 200 191 197 206 202 205 213 177 183 199 207 209 215 185 153 125 112 113 124 143 150 147 164 182 185 195 209 238 279 301 312 312 312 312 314
219 218 213 208 203 204 209 191 144 114 110 119 121 124 125 141 162 185 181 179 188 203 201 192 201 202 203 97 203 182 190 193 200 213 205 198 213 211 212 214 200 179 190 200 212 212 188 179 205 211 216 84 88 105 115 114 116 123 130 131 132 129 120 103 62 33 10 356 354 345 340 332 323 316
225 216 209 205 206 210 183 209 197 167 123 122 127 125 116 100 140 161 190 339 51 208 213 205 203 211 184 203 203 177 210 210 200 205 215 211 209 218 221 211 231 148 175 188 199 214 217 188 193 215 226 111 116 114 119 123 122 119 117 113 114 110 101 84 60 24 9 4 345 338 322 317 312 306
241 222 210 205 206 209 186 200 201 193 157 147 152 158 166 164 111 90 90 83 141 7 243 230 211 342 274 214 207 120 149 215 221 197 205 218 210 217 231 217 117 137 170 191 184 204 216 178 194 219 233 108 107 107 125 124 120 115 116 119 119 120 110 84 52 28 358 343 333 322 327 319 317 308
298 285 233 213 221 208 206 193 195 190 171 169 179 188 190 167 171 163 192 208 224 211 164 98 120 150 29 14 75 128 88 85 64 357 275 220 219 207 106 105 124 134 155 198 210 203 213 185 199 232 107 117 103 108 111 117 123 125 130 134 135 138 153 153 167 181 208 279 342 349 342 336 318 309
282 319 325 282 257 254 207 206 185 182 185 168 184 187 175 142 95 76 35 357 3 12 222 143 98 62 73 80 31 9 3 128 91 98 282 233 227 198 179 180 143 128 84 45 216 209 207 103 158 112 49 88 110 126 116 132 138 145 150 155 162 168 172 180 176 180 179 111 54 25 2 340 320 299
330 22 16 10 276 264 301 147 146 137 224 177 196 174 154 121 124 102 68 39 43 64 73 82 93 93 79 64 51 39 36 38 87 91 58 266 218 193 209 200 184 135 107 41 12 241 143 129 120 108 60 60 115 147 148 164 166 163 164 170 170 174 186 175 172 171 163 155 99 43 13 340 325 312
144 80 39 19 4 321 195 165 146 165 239 216 188 168 165 160 146 123 121 105 74 76 83 88 89 86 82 74 61 46 45 55 89 145 140 3 298 240 214 211 185 117 82 40 352 185 115 132 133 89 82 237 218 172 143 159 170 173 172 174 175 182 189 175 179 174 170 157 105 63 28 357 334 331
82 81 52 33 16 0 122 168 149 147 230 217 184 175 166 178 156 140 145 132 128 123 117 114 116 108 100 84 73 54 45 47 53 58 65 39 251 239 222 197 130 120 98 24 347 206 129 134 84 106 126 163 189 155 132 167 157 179 175 174 194 193 190 200 186 164 164 152 147 63 37 351 336 3
52 36 35 28 14 14 29 41 45 48 27 345 190 172 184 169 135 137 139 142 141 139 133 126 118 106 97 91 83 69 56 49 49 53 57 44 13 7 64 133 166 140 108 51 350 46 64 56 95 79 57 98 8 62 77 123 131 112 79 136 233 192 221 219 186 162 154 143 145 153 112 21 9 29
31 30 26 29 10 16 25 34 31 35 28 348 233 180 187 146 131 137 131 126 125 124 122 124 121 116 109 96 88 78 64 50 46 53 53 59 62 36 44 57 81 89 78 22 305 27 62 50 76 73 87 114 255 238 190 200 150 158 95 229 272 72 326 298 47 147 158 162 163 161 126 103 75 58
33 38 40 33 20 33 33 33 38 41 47 43 45 85 94 101 114 122 123 130 133 132 133 128 122 120 113 99 90 80 69 61 55 53 58 64 65 58 53 66 103 104 91 324 358 59 80 92 47 80 149 171 201 188 232 188 177 111 90 300 43 327 270 319 326 137 164 175 181 173 127 98 74 66
19 23 34 40 55 59 51 46 38 40 42 49 43 69 88 99 118 136 139 141 144 142 136 129 120 117 114 114 105 92 89 88 82 74 75 72 61 55 53 54 69 91 118 149 179 88 291 97 62 41 18 28 341 338 223 236 209 132 221 122 2 277 6 331 304 10 358 328 82 116 107 77 85 76
16 14 28 48 49 54 60 62 52 40 42 45 39 38 43 87 208 169 145 162 144 130 126 123 116 108 102 101 92 88 91 84 75 74 81 87 88 83 70 60 52 62 87 88 73 55 22 75 97 77 43 24 244 245 254 147 206 230 242 53 285 58 348 275 320 16 358 3 349 139 76 116 155 89
39 22 35 52 51 45 42 53 57 52 41 42 41 37 33 23 46 84 108 100 98 91 82 84 81 74 71 76 84 93 98 100 95 90 83 79 79 83 89 90 90 79 72 77 79 73 78 58 72 101 152 168 255 149 284 317 353 268 96 303 261 28 301 349 25 16 17 353 344 357 16 10 13 8
33 21 23 42 51 50 38 44 49 53 50 46 48 42 35 37 32 33 55 70 77 78 75 70 73 75 81 80 80 78 76 83 88 93 98 104 108 108 100 94 82 70 60 55 61 66 63 66 68 35 359 206 133 277 36 320 258 288 196 277 37 308 306 36 24 28 11 351 354 13 28 20 38 2
21 26 27 43 50 59 52 47 50 49 46 47 46 47 43 45 46 48 47 47 54 58 66 65 60 59 54 56 63 66 61 52 35 26 97 115 120 118 105 100 96 88 76 68 53 41 74 86 68 50 9 30 183 74 37 302 270 280 5 28 27 337 7 22 21 23 14 337 330 4 28 26 13 18
1 5 17 34 39 43 45 39 39 43 46 48 48 47 44 45 47 53 56 53 48 51 61 69 66 58 52 55 58 60 60 54 46 39 49 51 61 83 106 104 107 114 120 110 104 86 65 43 48 91 57 38 33 30 337 265 267 32 15 21 5 344 43 35 11 16 15 338 323 341 9 17 10 10
19 21 27 26 32 37 38 36 35 36 41 42 40 43 47 49 47 48 50 54 42 31 37 40 43 48 56 64 60 64 62 50 38 30 59 52 81 121 142 132 145 143 133 123 109 96 92 109 51 57 77 88 45 15 347 339 358 39 26 13 4 346 41 35 8 6 351 318 334 332 30 35 33 18
35 27 23 20 24 30 34 34 31 27 32 37 38 30 32 37 41 44 45 46 43 41 41 37 37 30 32 39 44 52 57 55 43 21 14 44 20 31 42 56 59 55 83 97 102 109 142 137 138 139 103 76 70 45 12 1 13 24 27 5 10 345 356 352 337 342 349 339 349 332 329 6 35 43
34 25 29 24 23 26 29 40 39 37 40 37 40 39 39 36 39 42 47 47 52 54 53 49 43 33 36 38 39 45 38 43 45 33 25 40 45 53 48 47 57 81 85 92 111 138 159 178 186 153 153 151 126 80 38 20 10 26 8 343 3 354 340 348 327 326 349 353 3 345 335 15 36 47
37 32 34 32 28 25 32 33 35 38 42 42 44 40 47 44 38 45 47 49 57 64 64 67 67 60 55 56 56 52 47 46 55 53 43 37 30 30 41 68 110 108 110 118 108 93 18 56 14 230 185 183 155 123 76 10 16 343 9 349 10 343 344 334 308 318 8 16 10 358 7 11 15 36
46 40 41 43 37 33 38 35 36 37 43 46 48 49 50 51 47 54 58 58 62 62 64 72 77 83 88 82 74 65 68 67 66 53 43 79 93 82 73 22 59 117 118 85 98 102 50 58 24 8 338 307 233 128 122 121 39 30 36 39 8 340 335 323 320 348 38 21 14 81 71 86 17 46
51 53 50 53 53 50 47 40 37 43 43 42 45 49 53 59 64 66 65 63 67 76 77 72 65 67 76 84 81 77 76 83 80 60 68 71 61 73 85 108 119 139 131 156 123 83 93 65 64 41 354 356 342 118 124 135 120 66 44 27 20 345 336 349 325 22 339 169 198 282 359 63 56 91
37 43 51 65 68 65 59 54 52 53 56 53 56 58 61 64 66 65 64 64 64 72 69 70 68 70 67 65 76 97 104 103 92 82 73 70 101 103 97 95 96 55 33 18 121 144 115 56 35 35 36 28 28 31 28 35 72 107 61 18 25 353 12 23 333 317 256 273 234 203 105 95 69 55
45 46 41 45 54 60 69 75 76 82 81 82 78 87 90 88 80 72 66 67 72 74 82 82 90 89 87 90 95 98 89 82 83 92 91 78 66 74 99 102 94 103 88 49 349 41 67 58 30 12 40 66 50 32 24 50 124 118 124 104 344 11 354 350 304 300 333 358 328 326 140 164 177 191
32 40 48 53 59 60 65 73 78 82 85 87 90 93 92 89 84 74 84 98 102 91 82 77 72 70 75 90 101 99 102 107 111 107 94 81 81 85 343 297 101 89 116 91 44 48 53 58 69 23 333 119 181 214 221 226 216 152 161 153 239 283 291 316 343 349 6 344 329 349 94 65 142 181
26 39 41 46 63 82 86 88 85 84 89 90 87 82 74 75 80 92 71 72 99 112 112 108 107 96 90 83 78 73 74 74 70 74 104 136 135 123 12 56 99 90 66 71 79 80 77 108 137 170 195 234 246 227 146 92 87 76 89 137 161 202 235 253 67 61 8 4 3 7 5 7 5 334
15 34 49 55 64 80 95 102 103 95 88 84 84 93 101 113 135 151 113 118 108 93 91 88 81 75 74 81 85 89 85 79 77 74 57 46 41 79 84 68 2 294 105 108 105 94 91 93 137 192 210 217 66 328 86 75 34 88 87 115 152 174 180 186 242 98 76 51 20 10 355 348 336 359
10 34 64 76 81 87 86 83 84 88 92 97 112 132 126 106 102 103 105 98 91 86 77 76 76 80 82 69 61 68 85 101 104 99 92 88 55 34 104 127 76 0 83 113 103 106 109 111 102 85 94 81 96 81 78 28 98 57 64 66 12 162 189 187 161 175 243 202 171 167 294 13 56 94
5 38 62 81 89 85 82 86 95 99 104 114 103 88 100 109 97 75 65 74 86 84 84 82 83 86 87 106 109 108 100 168 168 113 115 112 126 134 100 273 144 94 48 35 126 121 112 118 137 130 116 107 97 95 86 49 27 49 67 60 349 22 305 158 182 186 180 152 180 191 228 183 181 247